AirNav   Everest Fuels
 
 545 users online  

LA27 Texas Eastern Transmission Maintenance HQ Heliport
Lake Charles, Louisiana, USA

GOING TO LAKE CHARLES?


FAA INFORMATION EFFECTIVE 21 MAY 2020

Location

FAA Identifier: LA27
Lat/Long: 30-13-25.7430N 093-07-45.5470W
30-13.429050N 093-07.759117W
30.2238175,-93.1293186
(estimated)
Elevation: 15 ft. / 5 m (estimated)
Variation: 05E (1985)
From city: 2 miles E of LAKE CHARLES, LA
Time zone: UTC -5 (UTC -6 during Standard Time)
Zip code: 70615

Heliport Operations

Heliport use: Private use. Permission required prior to landing
Activation date: 08/1988
Control tower: no
ARTCC: HOUSTON CENTER
FSS: DE RIDDER FLIGHT SERVICE STATION
Attendance: UNATNDD
Wind indicator: yes
Segmented circle: no
Lights: FOR LGTS H4 CALL 337-421-6400.

Heliport Communications

WX AWOS-3 at CWF (1.1 nm SW): 120.0 (337-436-3452)
WX ASOS at LCH (8 nm SW): PHONE 337-477-3371
WX AWOS-3PT at UXL (14 nm SW): 118.175 (337-558-5321)

Nearby radio navigation aids

VOR radial/distance  VOR name  Freq  Var
LCHr339/5.1LAKE CHARLES VORTAC113.4007E

 
NDB name  Hdg/Dist  Freq  Var  ID
MOSSY141/6.141804ECW -.-. .--
SULPHUR080/15.227804EAUR .- ..- .-.
DE RIDDER157/33.438504EDXB -.. -..- -...

Heliport Services

Runway Information

Helipad H4

Dimensions: 40 x 40 ft. / 12 x 12 m
Surface: concrete
Runway edge lights: non-standard
BLUE CORNER LGTS.
Traffic pattern: leftleft

Helipad H1

Dimensions: 20 x 20 ft. / 6 x 6 m
Surface: concrete
Traffic pattern: leftleft

Helipad H2

Dimensions: 20 x 20 ft. / 6 x 6 m
Surface: concrete
Traffic pattern: leftleft

Helipad H3

Dimensions: 20 x 20 ft. / 6 x 6 m
Surface: concrete
Traffic pattern: leftleft

Heliport Ownership and Management from official FAA records

Ownership: Privately-owned
Owner: TX. EASTERN TRANMISSION CORP.
P.O. BOX 16823
LAKE CHARLES, LA 70616
Phone 337-421-6400
Manager: LORVELL LOVE
P.O. BOX 16823
LAKE CHARLES, LA 70616
Phone 337-421-6411

Additional Remarks

E111-1 INGRESS/EGRESS CONDUCTED EAST/WEST & NORTH/SOUTH BUT ARRIVALS TO THE SOUTH AND DEPARTURES TO THE NORTHMINIMIZED; CONTACT W/CHENNAULT ATCT OR LAKE CHARLES APCH CONTROL MAINTAINED; AND OPERATIONS DURING DAYLIGHT HOURS ONLY.
FOR CD CTC LAKE CHARLES APCH AT 337-480-3103, WHEN APCH CLSD CTC HOUSTON ARTCC AT 281-230-5622.

Instrument Procedures

There are no published instrument procedures at LA27.

Some nearby airports with instrument procedures:

KCWF - Chennault International Airport (1 nm SW)
KLCH - Lake Charles Regional Airport (8 nm SW)
KUXL - Southland Field Airport (14 nm SW)
6R1 - Welsh Airport (16 nm E)
5R8 - De Quincy Industrial Airpark (22 nm NW)
 
Loc | Ops | Rwys | IFR | FBO | Links
Com | Nav | Svcs | Stats | Notes
Area around LA27 (Texas Eastern Transmission Maintenance HQ Heliport)
 
Road maps at: MapQuest Bing Google
 
Aerial photo
No photo
 
Sectional chart

 
Airport distance calculator
Flying to Texas Eastern Transmission Maintenance HQ Heliport? Find the distance to fly.

From to LA27

Sunrise and sunset
Times for 31-May-2020
 Local
(UTC-5)
 Zulu
(UTC)
Morning civil twilight05:4510:45
Sunrise06:1211:12
Sunset20:0801:08
Evening civil twilight20:3501:35

Current date and time
Zulu (UTC)  31-May-2020 11:23:34
Local (UTC-5)  31-May-2020 06:23:34
 
METAR
KCWF 311100Z 05005KT 10SM SCT055 22/21 A3006
KLCH 
7nm SW 
311053Z AUTO 05005KT 10SM SCT110 22/21 A3006 RMK AO2 SLP186 T02170211
KUXL 
14nm SW 
311055Z AUTO 06007KT 10SM SCT110 24/20 A3007 RMK AO2 T02370195
TAF
KLCH 
7nm SW 
310520Z 3106/0106 04003KT P6SM SCT050 SCT250 FM311400 05009KT P6SM SCT050 SCT250 FM312000 07009KT P6SM VCTS SCT035CB BKN050 FM010200 VRB03KT P6SM SCT050 SCT250
NOTAMs
Click for the latest NOTAMs
NOTAMs are issued by the DoD/FAA and will open in a separate window not controlled by AirNav.

 

 
 

Would you like to see your business listed on this page?

 If your business provides an interesting product or service to pilots, flight crews, aircraft, or users of the Texas Eastern Transmission Maintenance HQ Heliport, you should consider listing it here.  To start the listing process, click on the button below
 
Add a business
 

Other Pages about Texas Eastern Transmission Maintenance HQ Heliport

Update a link
 
Copyright © AirNav, LLC. All rights reserved. Privacy Policy  Contact